EW9087 Weather Reports


Display with metric or nautical units.
time (UTC)temp
F
wind
direction
speed
MPH
gust
MPH
rain 1hr
in
rain 24hr
in
rain mn
in
humidity
%
barometer
mb
20260504231543 73 184 14.0 24.0 0.00 0.00 0.00 58 972.7
20260504230042 73 196 16.0 22.0 0.00 0.00 0.00 56 972.9
20260504224542 73 223 17.0 27.0 0.00 0.00 0.00 55 973.1
20260504223041 73 225 18.0 31.0 0.00 0.00 0.00 53 973.4
20260504221543 74 240 19.0 40.0 0.00 0.00 0.00 51 973.4
20260504220048 75 204 20.0 32.0 0.00 0.00 0.00 48 973.3
20260504214549 75 227 25.0 35.0 0.00 0.00 0.00 47 973.1
20260504213047 76 215 22.0 31.0 0.00 0.00 0.00 47 973.1
20260504211538 77 209 20.0 33.0 0.00 0.00 0.00 46 972.9
20260504210037 76 221 21.0 30.0 0.00 0.00 0.00 47 972.8
20260504204536 75 236 22.0 31.0 0.00 0.00 0.00 52 972.9
20260504203035 76 202 18.0 31.0 0.00 0.00 0.00 53 972.8
20260504201534 76 215 16.0 29.0 0.00 0.00 0.00 51 973.0
20260504200040 77 208 18.0 27.0 0.00 0.00 0.00 52 973.1
20260504194530 76 210 19.0 27.0 0.00 0.00 0.00 50 973.3
20260504193027 76 200 21.0 34.0 0.00 0.00 0.00 52 973.7
20260504191538 76 209 21.0 28.0 0.00 0.00 0.00 52 973.9
20260504190024 75 217 17.0 26.0 0.00 0.00 0.00 52 973.9
20260504184524 76 227 21.0 27.0 0.00 0.00 0.00 53 973.9
20260504183035 75 215 15.0 27.0 0.00 0.00 0.00 56 974.2
20260504181523 74 202 15.0 25.0 0.00 0.00 0.00 57 974.3
20260504180019 74 202 16.0 24.0 0.00 0.00 0.00 55 974.4
20260504174515 74 205 12.0 24.0 0.00 0.00 0.00 58 974.4
20260504173007 73 229 16.0 22.0 0.00 0.00 0.00 57 974.7
20260504171506 72 213 11.0 22.0 0.00 0.00 0.00 59 974.9
20260504081517 50 190 7.0 12.0 0.00 0.00 0.00 78 977.8
20260504044558 48 184 5.0 8.0 0.00 0.00 0.00 83 979.8
20260504043052 48 180 5.0 9.0 0.00 0.00 0.00 83 979.9
20260504041545 47 175 5.0 7.0 0.00 0.00 0.00 85 980.0
20260504040054 47 169 1.0 3.0 0.00 0.00 0.00 85 980.1
20260504034555 47 169 2.0 6.0 0.00 0.00 0.00 84 980.3
20260504033054 48 174 2.0 7.0 0.00 0.00 0.00 83 980.4
20260504031539 48 165 3.0 6.0 0.00 0.00 0.00 82 980.4
20260504030044 48 168 4.0 7.0 0.00 0.00 0.00 82 980.7
20260504024536 48 155 4.0 8.0 0.00 0.00 0.00 82 980.8
20260504023040 48 133 5.0 8.0 0.00 0.00 0.00 82 980.8
20260504021535 48 150 4.0 8.0 0.00 0.00 0.00 82 980.9
20260504020037 48 138 5.0 9.0 0.00 0.00 0.00 83 980.9
20260504014544 49 158 5.0 10.0 0.00 0.00 0.00 83 980.7
20260504013038 49 144 5.0 9.0 0.00 0.00 0.00 82 980.8
20260504011532 49 151 6.0 12.0 0.00 0.00 0.00 82 980.8
20260504010031 50 150 7.0 11.0 0.00 0.00 0.00 81 980.9
20260504004535 50 153 7.0 14.0 0.00 0.00 0.00 80 980.9
20260504003034 51 153 7.0 14.0 0.00 0.00 0.00 80 981.0
20260504001529 51 154 6.0 12.0 0.00 0.00 0.00 80 981.0
20260504000028 51 160 7.0 14.0 0.00 0.00 0.00 79 981.2
20260503234537 51 178 7.0 13.0 0.00 0.00 0.00 80 981.4
20260503233025 51 146 8.0 14.0 0.00 0.00 0.00 80 981.5